DW6637 Weather Reports


Display with metric or nautical units.
time (UTC)temp
F
wind
direction
speed
MPH
gust
MPH
rain 1hr
in
rain 24hr
in
rain mn
in
humidity
%
barometer
mb
20260508001509 80 257 0.0 0.0 0.00 0.00 0.00 51 1011.9
20260508000007 81 235 0.0 0.0 0.00 0.00 0.00 51 1012.0
20260507234505 82 259 0.0 0.0 0.00 0.00 0.00 51 1012.1
20260507233003 81 259 0.0 1.0 0.00 0.00 0.00 51 1012.1
20260507231501 81 250 0.0 0.0 0.00 0.00 0.00 49 1012.2
20260507230105 82 267 0.0 0.0 0.00 0.00 0.00 49 1012.1
20260507230002 82 267 0.0 0.0 0.00 0.00 0.00 50 1012.2
20260507224557 82 263 0.0 0.0 0.00 0.00 0.00 49 1012.2
20260507223059 82 255 0.0 0.0 0.00 0.00 0.00 49 1012.4
20260507221555 82 242 0.0 0.0 0.00 0.00 0.00 49 1012.4
20260507220052 82 291 0.0 0.0 0.00 0.00 0.00 49 1012.7
20260507214613 83 319 0.0 0.0 0.00 0.00 0.00 49 1012.9
20260507213103 82 270 0.0 0.0 0.00 0.00 0.00 49 1013.1
20260507211600 83 295 0.0 0.0 0.00 0.00 0.00 49 1013.1
20260507210053 83 233 0.0 0.0 0.00 0.00 0.00 48 1013.2
20260507204544 82 311 0.0 0.0 0.00 0.00 0.00 51 1013.4
20260507203051 83 236 0.0 0.0 0.00 0.00 0.00 50 1013.4
20260507201545 83 217 0.0 0.0 0.00 0.00 0.00 50 1013.5
20260507200041 83 349 0.0 0.0 0.00 0.00 0.00 50 1013.7
20260507194608 83 263 0.0 0.0 0.00 0.00 0.00 50 1013.8
20260507193036 82 254 0.0 0.0 0.00 0.00 0.00 49 1013.9
20260507191537 81 252 0.0 0.0 0.00 0.00 0.00 50 1014.1
20260507190032 81 122 0.0 0.0 0.00 0.00 0.00 51 1014.3
20260507184525 79 111 0.0 0.0 0.00 0.00 0.00 54 1014.6
20260507183026 79 284 0.0 0.0 0.00 0.00 0.00 54 1014.8
20260507181520 77 113 0.0 0.0 0.00 0.00 0.00 56 1014.8
20260507180017 77 96 0.0 0.0 0.00 0.00 0.00 57 1014.9
20260507174517 76 85 0.0 0.0 0.00 0.00 0.00 57 1015.1
20260507173015 75 89 0.0 0.0 0.00 0.00 0.00 60 1015.1
20260507171512 75 114 0.0 0.0 0.00 0.00 0.00 60 1015.1
20260507170010 74 122 0.0 0.0 0.00 0.00 0.00 62 1015.2
20260507164505 72 219 0.0 0.0 0.00 0.00 0.00 65 1015.3
20260507163002 71 103 0.0 0.0 0.00 0.00 0.00 66 1015.4
20260507161601 70 91 0.0 0.0 0.00 0.00 0.00 67 1015.4
20260507160056 68 93 0.0 0.0 0.00 0.00 0.00 71 1015.5
20260507154559 68 103 0.0 0.0 0.00 0.00 0.00 71 1015.6
20260507153052 67 153 0.0 0.0 0.00 0.00 0.00 74 1015.7
20260507151547 63 152 0.0 0.0 0.00 0.00 0.00 82 1015.6
20260507150044 59 152 0.0 0.0 0.00 0.00 0.00 87 1015.7
20260507144542 58 152 0.0 0.0 0.00 0.00 0.00 89 1015.7
20260507143040 56 152 0.0 0.0 0.00 0.00 0.00 92 1015.6
20260507141543 55 236 0.0 0.0 0.00 0.00 0.00 93 1015.3
20260507140040 54 236 0.0 0.0 0.00 0.00 0.00 93 1015.2
20260507134539 53 236 0.0 0.0 0.00 0.00 0.00 93 1015.0
20260507133037 53 236 0.0 0.0 0.00 0.00 0.00 92 1014.9
20260507131546 52 236 0.0 0.0 0.00 0.00 0.00 92 1014.8
20260507130040 52 236 0.0 0.0 0.00 0.00 0.00 92 1014.5
20260507124533 53 237 0.0 0.0 0.00 0.00 0.00 92 1014.5
20260507123032 53 236 0.0 0.0 0.00 0.00 0.00 91 1014.5
20260507121531 53 236 0.0 0.0 0.00 0.00 0.00 91 1014.5
20260507120030 53 236 0.0 0.0 0.00 0.00 0.00 91 1014.7
20260507114629 53 236 0.0 0.0 0.00 0.00 0.00 90 1014.7
20260507113026 54 236 0.0 0.0 0.00 0.00 0.00 90 1014.6
20260507111526 54 236 0.0 0.0 0.00 0.00 0.00 90 1014.7
20260507110022 54 236 0.0 0.0 0.00 0.00 0.00 89 1014.8
20260507104521 54 236 0.0 0.0 0.00 0.00 0.00 89 1014.8
20260507103027 54 236 0.0 0.0 0.00 0.00 0.00 89 1015.0
20260507101517 55 236 0.0 0.0 0.00 0.00 0.00 88 1014.9
20260507100019 55 236 0.0 0.0 0.00 0.00 0.00 88 1015.0
20260507094513 55 236 0.0 0.0 0.00 0.00 0.00 88 1015.0
20260507093010 55 237 0.0 0.0 0.00 0.00 0.00 88 1015.3
20260507091508 56 236 0.0 0.0 0.00 0.00 0.00 87 1015.5
20260507090006 56 236 0.0 0.0 0.00 0.00 0.00 87 1015.6
20260507084504 56 236 0.0 0.0 0.00 0.00 0.00 86 1015.7
20260507083002 56 237 0.0 0.0 0.00 0.00 0.00 86 1015.8
20260507081701 57 236 0.0 0.0 0.00 0.00 0.00 85 1015.8
20260507080113 57 236 0.0 0.0 0.00 0.00 0.00 84 1015.9
20260507074555 57 236 0.0 0.0 0.00 0.00 0.00 84 1015.8
20260507073052 58 236 0.0 0.0 0.00 0.00 0.00 83 1015.9
20260507071607 58 237 0.0 0.0 0.00 0.00 0.00 83 1015.9
20260507070048 59 236 0.0 0.0 0.00 0.00 0.00 83 1016.0
20260507064647 59 236 0.0 0.0 0.00 0.00 0.00 82 1016.1
20260507063047 59 236 0.0 0.0 0.00 0.00 0.00 81 1016.2
20260507061546 60 236 0.0 0.0 0.00 0.00 0.00 79 1016.1
20260507060050 60 236 0.0 0.0 0.00 0.00 0.00 79 1016.1
20260507054545 60 236 0.0 0.0 0.00 0.00 0.00 78 1016.1
20260507053110 61 236 0.0 0.0 0.00 0.00 0.00 77 1016.1
20260507051545 61 236 0.0 0.0 0.00 0.00 0.00 77 1016.0
20260507050046 62 236 0.0 0.0 0.00 0.00 0.00 75 1016.0
20260507044542 62 236 0.0 0.0 0.00 0.00 0.00 74 1015.9
20260507043041 63 235 0.0 0.0 0.00 0.00 0.00 73 1015.9
20260507041543 63 235 0.0 0.0 0.00 0.00 0.00 72 1015.8
20260507040040 64 235 0.0 0.0 0.00 0.00 0.00 70 1015.6
20260507034540 64 235 0.0 0.0 0.00 0.00 0.00 68 1015.4
20260507033044 65 235 0.0 0.0 0.00 0.00 0.00 67 1015.3
20260507031539 66 235 0.0 0.0 0.00 0.00 0.00 66 1015.1
20260507030039 67 235 0.0 0.0 0.00 0.00 0.00 66 1015.0
20260507024541 67 360 0.0 0.0 0.00 0.00 0.00 66 1014.8
20260507023038 68 207 0.0 0.0 0.00 0.00 0.00 63 1014.6
20260507021538 69 242 0.0 0.0 0.00 0.00 0.00 62 1014.5
20260507020041 70 245 0.0 0.0 0.00 0.00 0.00 61 1014.4
20260507014545 71 72 0.0 0.0 0.00 0.00 0.00 59 1014.3
20260507013034 72 253 0.0 0.0 0.00 0.00 0.00 57 1014.3
20260507011539 73 276 0.0 0.0 0.00 0.00 0.00 55 1014.2
20260507010036 76 214 0.0 0.0 0.00 0.00 0.00 51 1014.0
20260507004537 78 233 0.0 0.0 0.00 0.00 0.00 48 1014.0
20260507003030 79 266 0.0 0.0 0.00 0.00 0.00 48 1014.0